sat.trackr.live / text

‹ back to catalog

STARLINK-31106

NORAD 58689 · 2023-211Y

PAYLOAD ACTIVE UNKNOWN

§ Identity

Operator
Country
US
Launch date
2023-12-29
Launch site
AFETR
Launch vehicle
Mass (kg)
RCS (m²)

Purposes: comms

External: N2YO · Heavens-Above · Gunter

§ Orbital elements

Epoch: 2026-09-19T21:09:05.781024Z

Period
94.27 min
Inclination
43.0013°
Eccentricity
0.0001217
Mean motion
15.27602071 rev/d
Perigee alt
482.1 km
Apogee alt
483.8 km
Semi-major
6,861.1 km
B*
1.9369e-4
RAAN
68.5881°
Arg perigee
265.3881°
Mean anomaly
94.6831°
Rev number
15,216

§ Raw data

STARLINK-311061 58689U 23211Y   26262.88131691  .00005075  00000+0  19369-3 0  99972 58689  43.0013  68.5881 0001217 265.3881  94.6831 15.27602071152166

JSON: /api/v1/satellites/58689 · /tle

For live sub-satellite position, see the globe view (requires WebGL).

§ Visibility from observer

Set your observer location to see the next 7 days of passes ≥ 10°. The values pass through the URL so the page stays shareable.

No JS? Fill the form by hand. The geolocation button needs JavaScript.